STARLINK-11435, 62891

Orbit data source: Space-Track

STARLINK-11435, 62891 is a payload satellite owned by SpaceX/Seattle (US) in LEO that was launched on Tue, 04 Feb 2025 UTC via an FALCON 9 launch vehicle from the Air Force Eastern Test Range (AFETR). Payload-class satellites include a variety of spacecraft equipped with specific instruments for various scientific and technological missions. These include communications satellites like Starlink; space stations such as the ISS; scientific satellites like the Hubble; Earth observation satellites from companies like Planet Labs, Umbra, and HawkEye 360; GPS; miniature CubeSats for education and research; and military/defense satellites.

Loading next visibility...
Identifier
62891, 2025-024N
Orbit
LEO
Country
Flag of USUS
Related business
Manufacturer
SpaceX/Seattle
Mission
Operational Commercial Communications
Bus & Motor
STARLINK V2MD, Unknown motor
Mass
960 kg wet, ~910 kg dry
Launch date (UTC)
2025-02-04 (1 year ago)
Launch vehicle
FALCON 9
Launch site
Air Force Eastern Test Range (AFETR)
Object type
Payload
Rocket body
Debris
Shape & HBR
Box + 2 Pan, 18.1 m
Radar Cross Section
36.964 m², Large (>1 m²)

Expand to show TLE details & history
Last TLE update: 21 hours ago

TLE from 21 hours ago
0 STARLINK-11435
1 62891U 25024N   26129.60978857  .00143031  00000-0  10979-2 0  9999
2 62891  43.0027 174.6145 0002613 285.2628  74.7951 15.70863471 73046
Epoch: 2026-05-09T14:38Z
TLE epoch observation values (Epoch: 2026-05-09T14:38:05.732Z)
Latitude
Longitude
87.66586°
Altitude
355.738 km
Speed
7.698 km/s
True Right ascension
11h 38m 27s
True Declination
0° 00' 00"
Sunlit
Object was in full shadow at epoch
Visualization orbit readout
Latitude
Unknown
Longitude
Unknown
Altitude
Unknown
Speed
Unknown
Apparent Right ascension
Unknown
Apparent Declination
Unknown
Sunlit
N/A
Visualization observer readout
Local Sidereal Time
19:36:31
Azimuth
Unknown
Elevation
Unknown
Doppler factor
Unknown
Orbital elements
Apogee altitude
360.169 km
Perigee altitude
356.649 km
Semi-major axis
6,736.546 km
Eccentricity
0.00026
Inclination
43.0027°
RAAN
174.6145°
Arg. of periapsis
285.2628°
True anomaly
74.824°
Mean anomaly
74.7951°
Eccentric anomaly
74.80955°
Mean motion
3.92543 °/min
Orbital period
91.71 mins
BSTAR
0.0010979
Loading maneuver chart data...
Computing Atmospheric mass density...
Loading historical data...
Loading historical data...
Loading historical data...
Loading historical data...
Loading historical data...
Loading historical data...
Loading historical data...

Documentation

Showing up to 5 results
|